Погода в Мысе Каменном

Россия / Ямало-Ненецкий автономный округ     68°30′45″N   73°34′04″E
темп.,
°C
ветер,
м/с
пор.,
м/с
влажн.,
%
обл.,
%
осадки,
мм/ч
давл.,
гПа
погр.,
м
14 июня, пн
пн1423:00+8ююз337126 0.0 101211
02:00+8ссз4584100 0.0 101236
05:00+5св229636 0.0 101119
08:00+5с119297 0.1 101154
11:00+6всв339181 0.1 101046
14:00+6юв219179 0.0 1009133
17:00+6вюв3389100 0.1 100942
20:00+6ю339377 0.0 100732
15 июня, вт
вт1523:00+6ююз449319 0.0 100627
02:00+5ю449599 0.0 100529
05:00+4ююв459597 0.0 100443
08:00+5ю479687 0.0 100380
11:00+5ююв579695 0.2 100272
14:00+6ю3499100 0.6 100136
17:00+7сз8149692 1.3 1002169
20:00+4с81694100 0.0 1004221
16 июня, ср
ср1623:00+5ссз101982100 0.0 1006291
02:00+4ссз91778100 0.0 1007246
05:00+2ссз81485100 0.0 1008212
08:00+3ссз610840 0.0 1009167
11:00+4с57750 0.0 1009143
14:00+4с456649 0.0 1009131
17:00+5с3363100 0.0 100889
20:00+5вюв225925 0.0 100725
17 июня, чт
чт1723:00+4ююз335855 0.0 100722
02:00+4ю446861 0.0 100534
05:00+4ю466914 0.0 100465
08:00+4ююв68701 0.0 100398
11:00+5ююв68712 0.0 1002105
14:00+7ю69656 0.0 1001144
17:00+6ссз9148095 0.0 1002182
20:00+4ссз111791100 0.0 1002253
18 июня, пт
пт1823:00+2с111893100 0.0 1002301
02:00+2с121993100 0.1 1002321
05:00+1ссз111797100 2.6 1002354
08:00+1ссз111798100 7.9 1002399
11:000с121898100 19.8 1004388
14:00+1ссз121996100 3.8 1004415
17:00+1ссз111997100 5.6 1005462
20:00+1ссз111997100 4.1 1006423